Location: ??
(35.5090°N, 139.6783°E)
Time: 15:35:44
(UTC+00:00)

ISS - Visible Passes

Search period start: 20 January 2026 00:00
Search period end: 30 January 2026 00:00
Orbit: 413 x 424 km, 51.6° (Epoch: 20 January)

Date Brightness Start Highest point End Pass type
(mag) Time Alt. Az. Time Alt. Az. Time Alt. Az.
26 Jan -1.6 09:15:34 10° N 09:17:03 14° NNE 09:17:03 14° NNE visible
27 Jan -1.4 10:03:14 10° NW 10:04:18 19° NW 10:04:18 19° NW visible
28 Jan -3.0 09:15:15 10° NNW 09:18:19 33° NE 09:18:42 32° NE visible
29 Jan -2.3 08:27:22 10° NNW 08:29:59 21° NNE 08:32:36 10° E visible
29 Jan -2.2 10:03:42 10° WNW 10:06:19 35° WSW 10:06:19 35° WSW visible
